Cloud_Cover
100 100 100 100 100 100 100 100 100 100 46 62 85 100 100 60 71 0 5 66 93 100 54 39 55 5 5 0 0 3 5 5 5 5 5 4 1 0 0 0 0 0 0 0
100 100 100 100 100 100 100 100 100 100 99 100 100 100 100 22 5 2 50 100 100 100 95 88 72 5 1 1 5 5 1 3 5 5 1 0 0 0 0 0 0 0 19 0
96 84 100 100 100 100 100 100 100 100 99 100 100 85 20 67 5 6 5 100 100 100 100 81 78 5 58 7 31 5 4 2 1 5 32 29 4 0 0 0 0 0 0 0
87 8 98 100 100 100 100 100 100 94 100 100 100 52 22 5 5 0 3 100 100 100 100 87 59 28 9 15 13 5 5 5 1 0 1 2 1 0 2 5 0 6 0 5
99 2 100 100 100 100 100 100 100 97 100 100 94 94 36 5 5 4 24 100 100 91 100 69 88 66 5 6 5 12 5 0 0 0 0 0 4 5 2 0 3 5 5 55
64 4 39 100 100 96 77 98 94 96 73 43 98 15 5 5 67 7 83 100 69 54 61 99 100 47 32 6 5 5 5 2 2 4 5 5 12 5 4 5 5 5 10 5
4 46 100 100 100 81 74 91 64 100 5 1 18 75 100 5 46 41 100 99 87 90 77 93 94 56 59 5 5 5 5 3 5 8 5 86 10 5 4 5 5 5 5 5
19 93 100 100 100 99 100 100 93 100 98 27 33 100 78 100 100 100 100 88 61 10 58 66 77 78 63 36 21 5 5 5 8 56 25 90 5 5 5 5 5 9 5 5
100 100 100 100 100 100 100 100 92 100 7 14 30 100 73 65 100 100 100 98 12 33 67 70 64 70 10 63 5 5 5 5 5 54 63 72 53 5 5 5 5 36 12 5
100 100 100 100 100 100 92 100 100 89 22 99 100 54 48 100 100 100 100 55 82 68 70 92 34 76 38 19 5 66 17 43 38 5 35 5 11 7 18 10 33 8 5 5
100 100 100 100 100 100 79 100 100 78 35 100 100 98 100 100 100 100 100 47 12 80 71 62 32 64 50 6 5 5 5 6 72 6 65 63 26 42 96 82 40 14 5 5
100 100 100 100 100 100 100 100 99 77 100 100 87 100 100 100 100 100 98 49 10 6 21 95 66 92 70 8 5 5 5 6 18 19 6 7 34 6 32 7 27 38 60 10
100 100 100 100 100 100 100 100 59 95 37 97 100 100 100 100 100 100 74 10 6 76 70 86 8 96 5 78 5 5 7 22 77 81 14 5 5 5 5 5 5 5 15 99
100 100 100 100 100 100 100 100 92 31 86 100 100 100 100 100 100 100 93 98 12 82 35 32 76 88 12 20 12 8 45 17 23 90 5 18 5 6 5 31 81 100 100 100
100 100 100 100 100 100 100 100 100 100 100 100 100 100 100 100 100 100 99 83 25 91 98 68 100 71 88 58 14 73 47 45 9 9 50 54 68 100 100 100 100 64 37 82
100 100 100 100 100 100 100 100 100 100 100 100 100 100 100 100 100 96 84 60 5 96 100 100 64 100 90 88 76 98 100 80 84 100 100 100 100 100 100 100 78 86 99 58
100 100 100 100 100 99 100 100 100 100 100 100 100 100 100 100 100 78 75 54 28 65 52 93 100 100 100 100 100 100 100 100 100 100 100 78 100 62 48 36 78 92 100 100
100 100 100 100 100 100 100 100 100 100 100 100 100 100 100 100 100 100 69 49 34 57 96 98 96 100 100 100 100 100 100 100 100 100 80 18 31 34 66 93 92 98 61 80
100 100 100 100 100 100 100 100 100 100 100 100 100 100 100 100 100 100 95 48 98 76 99 99 100 100 100 100 100 100 100 64 93 84 72 68 60 69 96 77 73 63 78 88
100 90 100 100 100 100 100 100 100 100 100 100 100 100 100 100 100 100 74 100 83 98 92 66 100 100 100 87 75 82 91 100 91 100 98 94 91 83 100 100 100 98 97 61
97 100 100 100 99 100 100 100 100 100 96 68 98 97 100 100 100 100 100 93 82 100 100 100 89 100 100 88 99 97 98 100 100 90 93 76 100 100 100 77 84 98 100 100
100 100 100 100 100 100 100 100 100 100 100 100 100 100 100 100 100 100 100 100 88 100 100 95 100 100 100 100 100 100 100 100 97 94 100 100 100 97 100 100 100 100 100 100
100 100 99 100 100 100 100 100 100 100 100 100 100 100 100 100 100 100 100 100 100 100 100 99 100 100 100 100 100 100 100 100 100 97 100 100 100 100 100 100 100 100 90 89
100 100 100 100 100 100 100 100 100 100 100 100 100 100 100 100 100 100 100 100 99 100 100 100 100 100 100 100 100 100 100 100 100 100 100 100 100 100 100 100 100 100 99 49
100 100 100 100 100 100 100 100 100 100 100 100 100 100 99 100 100 97 100 100 100 100 100 100 100 100 100 100 100 100 100 100 100 100 100 100 100 100 100 100 92 58 29 5
100 100 100 100 100 100 100 100 100 100 100 100 100 100 100 100 100 99 100 100 100 100 100 100 100 100 100 100 100 100 100 100 100 100 100 100 100 97 75 24 5 2 5 5
100 100 100 100 100 100 100 100 100 100 100 100 100 100 100 98 100 100 100 100 98 100 100 100 100 100 100 100 99 98 100 85 82 94 82 30 6 3 0 0 0 0 4 5